Starlink 3779

operational
NORAD ID: 52281 Int'l Des: 2022-041 Owner: SPXS Country: US Constellation: starlink
LEOCIRCULAR

Über Starlink 3779

Beschreibung wird geladen...

Live-Position

3D-Globus wird geladen...

Nächste Überflüge

Höhenverlauf

Altitude vs Time

uPlot chart will show altitude changes over time

Zweizeiliger Elementsatz

1 52281U 22041W 25296.48921917 .00000755 00000-0 65526-4 0 9997
2 52281 53.2183 5.0378 0001373 96.1544 263.9605 15.08840371193650
Epoch: 23. Okt. 2025 • Age: 27 hours

Aktueller Status

Höhe 546.7 km
Geschwindigkeit 7.59 km/s
Subsatellitenpunkt -22.50°S, 89.19°E
Startdatum 21. Apr. 2022
Alter 3.5 years
Typ internet

Technische Details

Klassifizierung Payload
Masse 297.00 kg
Trockenmasse 275.00 kg
Gesamtmasse 297.00 kg
Länge 0.20 m
Durchmesser 2.80 m
Spannweite 9.00 m
Form Box + pan
Hersteller SPXS
Bus-Typ Starlink
Phasenstatus In Orbit
Besitzer/Staat SPXS/US

Große Konstellationen

Loading constellations...